| time (UTC) | temp F | wind direction | speed MPH | gust MPH | rain 1hr in | rain 24hr in | rain mn in | humidity % | barometer mb |
| 20260508130039 | 61 | 164 | 0.0 | 5.0 | 0.00 | 0.00 | 0.00 | 85 | 1016.0 |
| 20260508124548 | 61 | 136 | 0.0 | 2.0 | 0.00 | 0.00 | 0.00 | 85 | 1015.9 |
| 20260508123044 | 61 | 192 | 1.0 | 4.0 | 0.00 | 0.00 | 0.00 | 85 | 1016.0 |
| 20260508121543 | 61 | 126 | 0.0 | 4.0 | 0.00 | 0.00 | 0.00 | 85 | 1015.8 |
| 20260508120046 | 61 | 0 | 0.0 | 2.0 | 0.00 | 0.00 | 0.00 | 85 | 1015.7 |
| 20260508114545 | 61 | 150 | 0.0 | 3.0 | 0.00 | 0.00 | 0.00 | 85 | 1015.6 |
| 20260508113057 | 61 | 185 | 2.0 | 4.0 | 0.00 | 0.00 | 0.00 | 85 | 1015.7 |
| 20260508111547 | 61 | 139 | 0.0 | 3.0 | 0.00 | 0.00 | 0.00 | 85 | 1015.6 |
| 20260508110043 | 61 | 167 | 1.0 | 5.0 | 0.00 | 0.00 | 0.00 | 85 | 1015.6 |
| 20260508104541 | 61 | 0 | 0.0 | 2.0 | 0.00 | 0.00 | 0.00 | 85 | 1015.7 |
| 20260508103047 | 61 | 166 | 0.0 | 5.0 | 0.00 | 0.00 | 0.00 | 84 | 1015.7 |
| 20260508101547 | 61 | 0 | 1.0 | 4.0 | 0.00 | 0.00 | 0.00 | 84 | 1015.8 |
| 20260508100038 | 61 | 149 | 0.0 | 2.0 | 0.00 | 0.00 | 0.00 | 84 | 1015.8 |
| 20260508094548 | 61 | 0 | 0.0 | 4.0 | 0.00 | 0.00 | 0.00 | 84 | 1015.8 |
| 20260508093042 | 61 | 0 | 0.0 | 5.0 | 0.00 | 0.00 | 0.00 | 84 | 1015.8 |
| 20260508091539 | 61 | 124 | 0.0 | 3.0 | 0.00 | 0.00 | 0.00 | 84 | 1015.9 |
| 20260508090041 | 61 | 0 | 0.0 | 5.0 | 0.00 | 0.00 | 0.00 | 84 | 1016.1 |
| 20260508084537 | 60 | 0 | 0.0 | 3.0 | 0.00 | 0.00 | 0.00 | 84 | 1016.1 |
| 20260508083045 | 60 | 146 | 1.0 | 4.0 | 0.00 | 0.00 | 0.00 | 85 | 1016.2 |
| 20260508081547 | 60 | 162 | 1.0 | 6.0 | 0.00 | 0.00 | 0.00 | 85 | 1016.3 |
| 20260508080058 | 61 | 190 | 2.0 | 4.0 | 0.00 | 0.00 | 0.00 | 85 | 1016.4 |
| 20260508074539 | 60 | 178 | 1.0 | 7.0 | 0.00 | 0.00 | 0.00 | 84 | 1016.4 |
| 20260508073055 | 60 | 0 | 0.0 | 4.0 | 0.00 | 0.00 | 0.00 | 84 | 1016.5 |
| 20260508071544 | 61 | 0 | 1.0 | 4.0 | 0.00 | 0.00 | 0.00 | 83 | 1016.5 |
| 20260508070048 | 61 | 0 | 1.0 | 4.0 | 0.00 | 0.00 | 0.00 | 83 | 1016.3 |
| 20260508064547 | 61 | 0 | 1.0 | 3.0 | 0.00 | 0.00 | 0.00 | 82 | 1016.3 |
| 20260508063042 | 62 | 157 | 1.0 | 4.0 | 0.00 | 0.00 | 0.00 | 82 | 1016.2 |
| 20260508061545 | 62 | 167 | 1.0 | 4.0 | 0.00 | 0.00 | 0.00 | 81 | 1016.1 |
| 20260508060039 | 62 | 0 | 0.0 | 2.0 | 0.00 | 0.00 | 0.00 | 80 | 1016.2 |
| 20260508054553 | 63 | 147 | 0.0 | 3.0 | 0.00 | 0.00 | 0.00 | 80 | 1016.1 |
| 20260508053052 | 63 | 0 | 0.0 | 2.0 | 0.00 | 0.00 | 0.00 | 79 | 1016.2 |
| 20260508051546 | 63 | 174 | 0.0 | 2.0 | 0.00 | 0.00 | 0.00 | 78 | 1016.0 |
| 20260508050051 | 62 | 0 | 0.0 | 0.0 | 0.00 | 0.00 | 0.00 | 77 | 1015.9 |
| 20260508044548 | 62 | 0 | 0.0 | 0.0 | 0.00 | 0.00 | 0.00 | 76 | 1015.9 |
| 20260508043043 | 63 | 0 | 0.0 | 0.0 | 0.00 | 0.00 | 0.00 | 76 | 1015.8 |
| 20260508041544 | 63 | 0 | 0.0 | 1.0 | 0.00 | 0.00 | 0.00 | 76 | 1015.4 |
| 20260508040057 | 64 | 0 | 0.0 | 2.0 | 0.00 | 0.00 | 0.00 | 76 | 1015.3 |
| 20260508034543 | 64 | 0 | 0.0 | 1.0 | 0.00 | 0.00 | 0.00 | 75 | 1015.2 |
| 20260508033048 | 65 | 0 | 0.0 | 4.0 | 0.00 | 0.00 | 0.00 | 74 | 1015.0 |
| 20260508031546 | 66 | 325 | 0.0 | 3.0 | 0.00 | 0.00 | 0.00 | 73 | 1014.7 |
| 20260508030050 | 66 | 0 | 1.0 | 4.0 | 0.00 | 0.00 | 0.00 | 71 | 1014.5 |
| 20260508024540 | 67 | 311 | 1.0 | 7.0 | 0.00 | 0.00 | 0.00 | 69 | 1014.4 |
| 20260508023039 | 68 | 294 | 1.0 | 4.0 | 0.00 | 0.00 | 0.00 | 67 | 1014.2 |
| 20260508021544 | 69 | 301 | 0.0 | 3.0 | 0.00 | 0.00 | 0.00 | 65 | 1014.0 |
| 20260508020038 | 70 | 327 | 0.0 | 4.0 | 0.00 | 0.00 | 0.00 | 64 | 1013.9 |
| 20260508014538 | 71 | 323 | 2.0 | 6.0 | 0.00 | 0.00 | 0.00 | 62 | 1013.9 |
| 20260508013043 | 72 | 265 | 2.0 | 6.0 | 0.00 | 0.00 | 0.00 | 61 | 1013.8 |
| 20260508011538 | 73 | 334 | 2.0 | 4.0 | 0.00 | 0.00 | 0.00 | 62 | 1013.7 |
| 20260508010048 | 74 | 0 | 1.0 | 4.0 | 0.00 | 0.00 | 0.00 | 61 | 1013.7 |
| 20260508004548 | 75 | 230 | 1.0 | 5.0 | 0.00 | 0.00 | 0.00 | 59 | 1013.6 |
| 20260508003051 | 76 | 320 | 1.0 | 6.0 | 0.00 | 0.00 | 0.00 | 58 | 1013.6 |
| 20260508001547 | 77 | 289 | 1.0 | 5.0 | 0.00 | 0.00 | 0.00 | 57 | 1013.6 |
| 20260508000052 | 77 | 333 | 1.0 | 4.0 | 0.00 | 0.00 | 0.00 | 57 | 1013.5 |
| 20260507234556 | 77 | 296 | 1.0 | 5.0 | 0.00 | 0.00 | 0.00 | 58 | 1013.6 |
| 20260507233111 | 77 | 250 | 1.0 | 7.0 | 0.00 | 0.00 | 0.00 | 56 | 1013.7 |
| 20260507231540 | 76 | 189 | 3.0 | 8.0 | 0.00 | 0.00 | 0.00 | 58 | 1013.6 |
| 20260507230050 | 75 | 188 | 4.0 | 9.0 | 0.00 | 0.00 | 0.00 | 58 | 1013.6 |
| 20260507224544 | 75 | 175 | 5.0 | 9.0 | 0.00 | 0.00 | 0.00 | 58 | 1013.6 |
| 20260507223056 | 74 | 143 | 4.0 | 10.0 | 0.00 | 0.00 | 0.00 | 60 | 1014.0 |
| 20260507221542 | 74 | 208 | 5.0 | 10.0 | 0.00 | 0.00 | 0.00 | 60 | 1014.0 |
| 20260507220040 | 74 | 208 | 4.0 | 10.0 | 0.00 | 0.00 | 0.00 | 61 | 1014.4 |
| 20260507214539 | 73 | 125 | 3.0 | 11.0 | 0.00 | 0.00 | 0.00 | 63 | 1014.6 |
| 20260507213045 | 73 | 227 | 4.0 | 10.0 | 0.00 | 0.00 | 0.00 | 63 | 1014.7 |
| 20260507211549 | 73 | 155 | 5.0 | 11.0 | 0.00 | 0.00 | 0.00 | 62 | 1014.9 |
| 20260507204544 | 72 | 134 | 6.0 | 10.0 | 0.00 | 0.00 | 0.00 | 64 | 1015.3 |
| 20260507203039 | 72 | 172 | 4.0 | 11.0 | 0.00 | 0.00 | 0.00 | 63 | 1015.4 |
| 20260507201545 | 72 | 109 | 2.0 | 9.0 | 0.00 | 0.00 | 0.00 | 63 | 1015.4 |
| 20260507200052 | 72 | 146 | 3.0 | 11.0 | 0.00 | 0.00 | 0.00 | 65 | 1015.7 |
| 20260507194548 | 72 | 192 | 3.0 | 9.0 | 0.00 | 0.00 | 0.00 | 65 | 1015.8 |
| 20260507193047 | 72 | 194 | 5.0 | 12.0 | 0.00 | 0.00 | 0.00 | 66 | 1015.8 |
| 20260507191547 | 72 | 148 | 3.0 | 9.0 | 0.00 | 0.00 | 0.00 | 64 | 1016.0 |
| 20260507190050 | 71 | 175 | 4.0 | 10.0 | 0.00 | 0.00 | 0.00 | 65 | 1016.1 |
| 20260507184545 | 72 | 244 | 3.0 | 12.0 | 0.00 | 0.00 | 0.00 | 65 | 1016.2 |
| 20260507183110 | 71 | 209 | 1.0 | 7.0 | 0.00 | 0.00 | 0.00 | 65 | 1016.1 |
| 20260507181551 | 71 | 221 | 3.0 | 8.0 | 0.00 | 0.00 | 0.00 | 66 | 1016.2 |
| 20260507180043 | 70 | 221 | 2.0 | 7.0 | 0.00 | 0.00 | 0.00 | 66 | 1016.2 |
| 20260507174543 | 70 | 165 | 3.0 | 8.0 | 0.00 | 0.00 | 0.00 | 66 | 1016.4 |
| 20260507173047 | 70 | 105 | 2.0 | 7.0 | 0.00 | 0.00 | 0.00 | 67 | 1016.5 |
| 20260507171538 | 70 | 188 | 1.0 | 8.0 | 0.00 | 0.00 | 0.00 | 69 | 1016.4 |
| 20260507170048 | 69 | 0 | 1.0 | 5.0 | 0.00 | 0.00 | 0.00 | 71 | 1016.3 |
| 20260507164603 | 68 | 0 | 2.0 | 5.0 | 0.00 | 0.00 | 0.00 | 73 | 1016.4 |
| 20260507163047 | 67 | 188 | 1.0 | 4.0 | 0.00 | 0.00 | 0.00 | 77 | 1016.7 |
| 20260507161551 | 66 | 217 | 0.0 | 4.0 | 0.00 | 0.00 | 0.00 | 80 | 1016.6 |
| 20260507160057 | 64 | 0 | 1.0 | 5.0 | 0.00 | 0.00 | 0.00 | 83 | 1016.8 |
| 20260507154549 | 63 | 0 | 1.0 | 5.0 | 0.00 | 0.00 | 0.00 | 85 | 1016.8 |
| 20260507153045 | 63 | 236 | 0.0 | 3.0 | 0.00 | 0.00 | 0.00 | 86 | 1016.8 |
| 20260507151546 | 61 | 176 | 0.0 | 3.0 | 0.00 | 0.00 | 0.00 | 87 | 1016.9 |
| 20260507150047 | 60 | 0 | 1.0 | 3.0 | 0.00 | 0.00 | 0.00 | 87 | 1016.9 |
| 20260507144539 | 59 | 0 | 0.0 | 2.0 | 0.00 | 0.00 | 0.00 | 87 | 1016.9 |
| 20260507143047 | 58 | 0 | 0.0 | 1.0 | 0.00 | 0.00 | 0.00 | 87 | 1016.7 |
| 20260507141544 | 56 | 0 | 0.0 | 1.0 | 0.00 | 0.00 | 0.00 | 87 | 1016.6 |
| 20260507140045 | 55 | 0 | 0.0 | 0.0 | 0.00 | 0.00 | 0.00 | 86 | 1016.6 |
| 20260507134541 | 54 | 0 | 0.0 | 0.0 | 0.00 | 0.00 | 0.00 | 86 | 1016.4 |
| 20260507133051 | 54 | 0 | 0.0 | 0.0 | 0.00 | 0.00 | 0.00 | 86 | 1016.2 |
| 20260507131540 | 53 | 0 | 0.0 | 0.0 | 0.00 | 0.00 | 0.00 | 86 | 1016.1 |